| time (UTC) | temp F | wind direction | speed MPH | gust MPH | rain 1hr in | rain 24hr in | rain mn in | humidity % | barometer mb |
| 20260506001528 | 53 | 248 | 0.0 | 3.0 | 0.00 | 0.11 | 0.01 | 94 | 1007.8 |
| 20260506001230 | 54 | 229 | 1.0 | 3.0 | 0.00 | 0.11 | 0.00 | 94 | 1007.8 |
| 20260506000044 | 53 | 175 | 0.0 | 3.0 | 0.00 | 0.11 | 0.01 | 94 | 1008.0 |
| 20260505234618 | 53 | 173 | 0.0 | 2.0 | 0.00 | 0.11 | 0.01 | 94 | 1008.0 |
| 20260505234225 | 54 | 194 | 1.0 | 3.0 | 0.00 | 0.11 | 0.00 | 94 | 1008.0 |
| 20260505233221 | 53 | 214 | 1.0 | 3.0 | 0.00 | 0.11 | 0.00 | 94 | 1008.1 |
| 20260505233009 | 53 | 213 | 1.0 | 3.0 | 0.00 | 0.11 | 0.01 | 94 | 1008.2 |
| 20260505232212 | 53 | 167 | 1.0 | 2.0 | 0.00 | 0.11 | 0.00 | 94 | 1008.1 |
| 20260505231510 | 53 | 205 | 0.0 | 2.0 | 0.00 | 0.11 | 0.01 | 94 | 1008.2 |
| 20260505231215 | 53 | 182 | 1.0 | 4.0 | 0.00 | 0.11 | 0.00 | 94 | 1008.1 |
| 20260505230216 | 54 | 180 | 1.0 | 4.0 | 0.00 | 0.11 | 0.00 | 94 | 1008.1 |
| 20260505230109 | 53 | 184 | 0.0 | 3.0 | 0.00 | 0.11 | 0.01 | 94 | 1008.2 |
| 20260505225218 | 54 | 103 | 1.0 | 2.0 | 0.01 | 0.11 | 0.00 | 94 | 1008.2 |
| 20260505224600 | 53 | 232 | 0.0 | 2.0 | 0.01 | 0.11 | 0.01 | 93 | 1008.3 |
| 20260505223219 | 54 | 224 | 1.0 | 3.0 | 0.01 | 0.11 | 0.00 | 94 | 1008.1 |
| 20260505223033 | 54 | 209 | 1.0 | 3.0 | 0.01 | 0.11 | 0.01 | 94 | 1008.2 |
| 20260505222228 | 54 | 193 | 1.0 | 3.0 | 0.01 | 0.11 | 0.00 | 93 | 1008.1 |
| 20260505221513 | 54 | 200 | 0.0 | 2.0 | 0.01 | 0.11 | 0.01 | 93 | 1008.2 |
| 20260505221218 | 54 | 198 | 1.0 | 4.0 | 0.01 | 0.11 | 0.00 | 93 | 1008.1 |
| 20260505220218 | 54 | 222 | 1.0 | 4.0 | 0.01 | 0.11 | 0.11 | 93 | 1008.0 |
| 20260505220138 | 54 | 196 | 0.0 | 3.0 | 0.01 | 0.11 | 0.01 | 93 | 1008.2 |
| 20260505215223 | 55 | 207 | 0.0 | 2.0 | 0.00 | 0.10 | 0.10 | 93 | 1008.0 |
| 20260505214619 | 54 | 244 | 0.0 | 1.0 | 0.00 | 0.10 | 0.10 | 93 | 1008.2 |
| 20260505214224 | 55 | 192 | 0.0 | 2.0 | 0.00 | 0.10 | 0.10 | 93 | 1008.1 |
| 20260505213210 | 55 | 213 | 1.0 | 2.0 | 0.00 | 0.10 | 0.10 | 93 | 1008.1 |
| 20260505213100 | 54 | 218 | 0.0 | 2.0 | 0.00 | 0.10 | 0.10 | 93 | 1008.2 |
| 20260505212219 | 55 | 230 | 0.0 | 2.0 | 0.00 | 0.10 | 0.10 | 93 | 1008.1 |
| 20260505211527 | 55 | 182 | 0.0 | 1.0 | 0.00 | 0.10 | 0.10 | 93 | 1008.2 |
| 20260505211218 | 55 | 232 | 0.0 | 2.0 | 0.00 | 0.10 | 0.10 | 93 | 1008.1 |
| 20260505210221 | 56 | 232 | 1.0 | 4.0 | 0.00 | 0.10 | 0.10 | 93 | 1008.1 |
| 20260505210057 | 55 | 232 | 0.0 | 3.0 | 0.00 | 0.10 | 0.10 | 93 | 1008.3 |
| 20260505205219 | 56 | 242 | 1.0 | 4.0 | 0.00 | 0.10 | 0.10 | 93 | 1008.1 |
| 20260505204503 | 56 | 222 | 0.0 | 3.0 | 0.00 | 0.10 | 0.10 | 93 | 1008.3 |
| 20260505204234 | 56 | 138 | 1.0 | 5.0 | 0.00 | 0.10 | 0.10 | 93 | 1008.2 |
| 20260505203217 | 56 | 243 | 2.0 | 5.0 | 0.00 | 0.10 | 0.10 | 93 | 1008.2 |
| 20260505203017 | 56 | 214 | 1.0 | 6.0 | 0.00 | 0.10 | 0.10 | 93 | 1008.3 |
| 20260505202224 | 56 | 189 | 2.0 | 4.0 | 0.00 | 0.10 | 0.10 | 92 | 1008.2 |
| 20260505201528 | 56 | 119 | 1.0 | 4.0 | 0.00 | 0.10 | 0.10 | 92 | 1008.2 |
| 20260505201209 | 57 | 174 | 1.0 | 2.0 | 0.01 | 0.10 | 0.10 | 92 | 1008.1 |
| 20260505200224 | 57 | 200 | 1.0 | 3.0 | 0.02 | 0.10 | 0.10 | 92 | 1008.0 |
| 20260505200107 | 56 | 165 | 1.0 | 3.0 | 0.02 | 0.10 | 0.10 | 92 | 1008.1 |
| 20260505195227 | 57 | 200 | 1.0 | 3.0 | 0.02 | 0.10 | 0.10 | 92 | 1007.9 |
| 20260505194550 | 57 | 192 | 1.0 | 4.0 | 0.02 | 0.10 | 0.10 | 92 | 1007.9 |
| 20260505194211 | 57 | 163 | 1.0 | 3.0 | 0.03 | 0.10 | 0.10 | 91 | 1007.9 |
| 20260505193232 | 57 | 166 | 1.0 | 3.0 | 0.05 | 0.10 | 0.10 | 91 | 1007.8 |
| 20260505193054 | 57 | 155 | 0.0 | 3.0 | 0.04 | 0.10 | 0.10 | 91 | 1007.8 |
| 20260505192223 | 58 | 184 | 1.0 | 3.0 | 0.06 | 0.10 | 0.10 | 91 | 1007.6 |
| 20260505191517 | 57 | 194 | 0.0 | 2.0 | 0.08 | 0.10 | 0.10 | 91 | 1007.7 |
| 20260505191223 | 58 | 148 | 1.0 | 2.0 | 0.06 | 0.09 | 0.09 | 91 | 1007.6 |
| 20260505190220 | 58 | 186 | 1.0 | 3.0 | 0.05 | 0.09 | 0.09 | 90 | 1007.6 |
| 20260505185217 | 59 | 198 | 1.0 | 3.0 | 0.05 | 0.09 | 0.09 | 90 | 1007.7 |
| 20260505184523 | 58 | 134 | 0.0 | 2.0 | 0.06 | 0.08 | 0.08 | 89 | 1007.7 |
| 20260505184211 | 59 | 233 | 1.0 | 2.0 | 0.03 | 0.07 | 0.07 | 89 | 1007.6 |
| 20260505182226 | 60 | 188 | 1.0 | 2.0 | 0.02 | 0.02 | 0.02 | 88 | 1007.5 |
| 20260505181540 | 60 | 222 | 0.0 | 2.0 | 0.01 | 0.02 | 0.02 | 87 | 1007.6 |
| 20260505180023 | 0 | 0.0 | 0.0 | 0.00 | 0.02 | 0.02 | 1007.4 | ||
| 20260505174531 | 0 | 0.0 | 0.0 | 0.00 | 0.02 | 0.02 | 1007.5 | ||
| 20260505173227 | 62 | 150 | 0.0 | 1.0 | 0.00 | 0.02 | 0.02 | 80 | 1007.4 |
| 20260505173047 | 61 | 150 | 0.0 | 2.0 | 0.00 | 0.02 | 0.02 | 80 | 1007.4 |
| 20260505172218 | 62 | 109 | 1.0 | 0.0 | 0.00 | 0.02 | 0.02 | 80 | 1007.4 |
| 20260505171536 | 0 | 0.0 | 0.0 | 0.00 | 0.02 | 0.02 | 1007.4 | ||
| 20260505170110 | 0 | 0.0 | 0.0 | 0.00 | 0.02 | 0.02 | 1007.5 | ||
| 20260505164600 | 0 | 0.0 | 0.0 | 0.00 | 0.02 | 0.02 | 1007.5 | ||
| 20260505163045 | 0 | 0.0 | 0.0 | 0.00 | 0.02 | 0.02 | 1007.6 | ||
| 20260505161515 | 0 | 0.0 | 0.0 | 0.00 | 0.02 | 0.02 | 1007.6 | ||
| 20260505160107 | 0 | 0.0 | 0.0 | 0.00 | 0.02 | 0.02 | 1007.6 | ||
| 20260505153008 | 0 | 0.0 | 0.0 | 0.00 | 0.02 | 0.02 | 1007.7 | ||
| 20260505151544 | 0 | 0.0 | 0.0 | 0.00 | 0.02 | 0.02 | 1007.8 | ||
| 20260505150225 | 61 | 0 | 1.0 | 2.0 | 0.00 | 0.02 | 0.02 | 83 | 1007.9 |
| 20260505124606 | 0 | 0.0 | 0.0 | 0.00 | 0.00 | 0.00 | 1008.8 | ||
| 20260505123224 | 63 | 211 | 2.0 | 3.0 | 0.00 | 0.00 | 0.00 | 74 | 1008.9 |
| 20260505123054 | 0 | 0.0 | 0.0 | 0.00 | 0.00 | 0.00 | 1008.9 | ||
| 20260505122220 | 63 | 211 | 2.0 | 5.0 | 0.00 | 0.00 | 0.00 | 74 | 1008.8 |
| 20260505121554 | 62 | 216 | 2.0 | 5.0 | 0.00 | 0.00 | 0.00 | 74 | 1008.8 |
| 20260505120114 | 63 | 236 | 0.0 | 2.0 | 0.00 | 0.00 | 0.00 | 73 | 1008.8 |
| 20260505115219 | 63 | 252 | 1.0 | 3.0 | 0.00 | 0.00 | 0.00 | 74 | 1008.8 |
| 20260505114526 | 63 | 288 | 1.0 | 3.0 | 0.00 | 0.00 | 0.00 | 73 | 1008.9 |
| 20260505114225 | 64 | 248 | 1.0 | 2.0 | 0.00 | 0.00 | 0.00 | 75 | 1008.9 |
| 20260505113211 | 63 | 167 | 1.0 | 1.0 | 0.00 | 0.00 | 0.00 | 74 | 1008.9 |
| 20260505113005 | 63 | 23 | 0.0 | 3.0 | 0.00 | 0.00 | 0.00 | 74 | 1008.9 |
| 20260505111553 | 0 | 0.0 | 0.0 | 0.00 | 0.00 | 0.00 | 1009.0 | ||
| 20260505101524 | 63 | 123 | 1.0 | 3.0 | 0.00 | 0.00 | 0.00 | 80 | 1009.0 |
| 20260505101228 | 64 | 115 | 1.0 | 5.0 | 0.00 | 0.00 | 0.00 | 79 | 1009.0 |
| 20260505100218 | 64 | 171 | 2.0 | 5.0 | 0.00 | 0.00 | 0.00 | 79 | 1009.1 |
| 20260505100055 | 63 | 201 | 1.0 | 4.0 | 0.00 | 0.00 | 0.00 | 78 | 1009.2 |
| 20260505095226 | 63 | 182 | 2.0 | 5.0 | 0.00 | 0.00 | 0.00 | 78 | 1009.3 |
| 20260505094544 | 63 | 161 | 1.0 | 5.0 | 0.00 | 0.00 | 0.00 | 78 | 1009.3 |
| 20260505094220 | 63 | 254 | 1.0 | 4.0 | 0.00 | 0.00 | 0.00 | 78 | 1009.2 |
| 20260505093224 | 63 | 112 | 1.0 | 3.0 | 0.00 | 0.00 | 0.00 | 78 | 1009.3 |
| 20260505093046 | 63 | 225 | 1.0 | 3.0 | 0.00 | 0.00 | 0.00 | 78 | 1009.3 |
| 20260505092215 | 63 | 81 | 2.0 | 0.0 | 0.00 | 0.00 | 0.00 | 79 | 1009.4 |
| 20260505091519 | 0 | 0.0 | 0.0 | 0.00 | 0.00 | 0.00 | 1009.4 | ||
| 20260505091226 | 62 | 225 | 2.0 | 2.0 | 0.00 | 0.00 | 0.00 | 77 | 1009.5 |
| 20260505090218 | 62 | 225 | 2.0 | 3.0 | 0.00 | 0.00 | 0.00 | 77 | 1009.6 |
| 20260505090059 | 62 | 225 | 1.0 | 3.0 | 0.00 | 0.00 | 0.00 | 77 | 1009.6 |
| 20260505085226 | 62 | 93 | 2.0 | 4.0 | 0.00 | 0.00 | 0.00 | 77 | 1009.6 |
| 20260505084550 | 62 | 151 | 1.0 | 3.0 | 0.00 | 0.00 | 0.00 | 77 | 1009.7 |
| 20260505084218 | 62 | 151 | 2.0 | 4.0 | 0.00 | 0.00 | 0.00 | 77 | 1009.8 |
| 20260505083211 | 62 | 101 | 1.0 | 3.0 | 0.00 | 0.00 | 0.00 | 77 | 1009.9 |
| 20260505083103 | 62 | 144 | 1.0 | 4.0 | 0.00 | 0.00 | 0.00 | 77 | 1009.9 |
| 20260505082215 | 62 | 214 | 1.0 | 1.0 | 0.00 | 0.00 | 0.00 | 78 | 1009.9 |
| 20260505081523 | 0 | 0.0 | 0.0 | 0.00 | 0.00 | 0.00 | 1009.8 | ||
| 20260505081228 | 62 | 214 | 1.0 | 4.0 | 0.00 | 0.00 | 0.00 | 78 | 1009.9 |
| 20260505080055 | 61 | 166 | 0.0 | 4.0 | 0.00 | 0.00 | 0.00 | 78 | 1009.9 |
| 20260505075226 | 61 | 155 | 1.0 | 2.0 | 0.00 | 0.00 | 0.00 | 78 | 1009.9 |
| 20260505074510 | 60 | 92 | 0.0 | 3.0 | 0.00 | 0.00 | 0.00 | 80 | 1009.9 |
| 20260505074211 | 60 | 138 | 1.0 | 4.0 | 0.00 | 0.00 | 0.00 | 79 | 1010.0 |
| 20260505073220 | 60 | 218 | 1.0 | 4.0 | 0.00 | 0.00 | 0.00 | 79 | 1010.1 |
| 20260505073110 | 60 | 222 | 1.0 | 3.0 | 0.00 | 0.00 | 0.00 | 79 | 1010.0 |
| 20260505072217 | 60 | 57 | 1.0 | 1.0 | 0.00 | 0.00 | 0.00 | 79 | 1010.1 |
| 20260505071559 | 59 | 348 | 0.0 | 1.0 | 0.00 | 0.00 | 0.00 | 80 | 1010.1 |
| 20260505071212 | 59 | 244 | 0.0 | 1.0 | 0.00 | 0.00 | 0.00 | 80 | 1010.1 |
| 20260505070053 | 58 | 244 | 0.0 | 1.0 | 0.00 | 0.00 | 0.00 | 80 | 1010.1 |
| 20260505065212 | 58 | 215 | 0.0 | 1.0 | 0.00 | 0.00 | 0.00 | 81 | 1010.2 |
| 20260505064606 | 57 | 215 | 0.0 | 1.0 | 0.00 | 0.00 | 0.00 | 82 | 1010.1 |
| 20260505063227 | 57 | 229 | 0.0 | 1.0 | 0.00 | 0.00 | 0.00 | 82 | 1010.2 |
| 20260505063039 | 57 | 229 | 0.0 | 1.0 | 0.00 | 0.00 | 0.00 | 82 | 1010.1 |
| 20260505062213 | 57 | 233 | 1.0 | 2.0 | 0.00 | 0.00 | 0.00 | 82 | 1010.1 |
| 20260505061542 | 56 | 219 | 0.0 | 2.0 | 0.00 | 0.00 | 0.00 | 82 | 1010.1 |
| 20260505061218 | 57 | 182 | 0.0 | 1.0 | 0.00 | 0.00 | 0.00 | 82 | 1010.2 |
| 20260505060225 | 57 | 244 | 0.0 | 1.0 | 0.00 | 0.00 | 0.00 | 82 | 1010.2 |
| 20260505060055 | 56 | 244 | 0.0 | 2.0 | 0.00 | 0.00 | 0.00 | 82 | 1010.2 |
| 20260505054517 | 0 | 0.0 | 0.0 | 0.00 | 0.00 | 0.00 | 1010.3 | ||
| 20260505054225 | 56 | 240 | 1.0 | 2.0 | 0.00 | 0.00 | 0.00 | 84 | 1010.3 |
| 20260505053230 | 56 | 240 | 1.0 | 2.0 | 0.00 | 0.00 | 0.00 | 84 | 1010.3 |
| 20260505053047 | 55 | 240 | 1.0 | 3.0 | 0.00 | 0.00 | 0.00 | 84 | 1010.3 |
| 20260505052214 | 55 | 208 | 1.0 | 3.0 | 0.00 | 0.00 | 0.00 | 84 | 1010.3 |
| 20260505051555 | 55 | 217 | 1.0 | 4.0 | 0.00 | 0.00 | 0.00 | 84 | 1010.3 |
| 20260505051245 | 55 | 204 | 2.0 | 3.0 | 0.00 | 0.00 | 0.00 | 84 | 1010.3 |
| 20260505050227 | 55 | 238 | 1.0 | 3.0 | 0.00 | 0.00 | 0.00 | 84 | 1010.2 |
| 20260505041552 | 55 | 203 | 2.0 | 3.0 | 0.00 | 0.00 | 0.00 | 84 | 1010.1 |
| 20260505041218 | 55 | 226 | 1.0 | 2.0 | 0.00 | 0.00 | 0.00 | 84 | 1010.2 |
| 20260505040056 | 55 | 269 | 1.0 | 3.0 | 0.00 | 0.00 | 0.00 | 84 | 1010.1 |
| 20260505035227 | 55 | 27 | 1.0 | 4.0 | 0.00 | 0.00 | 0.00 | 84 | 1010.1 |
| 20260505034519 | 55 | 223 | 1.0 | 4.0 | 0.00 | 0.00 | 0.00 | 84 | 1010.0 |
| 20260505034222 | 55 | 257 | 2.0 | 4.0 | 0.00 | 0.00 | 0.00 | 84 | 1010.1 |
| 20260505033224 | 55 | 215 | 2.0 | 4.0 | 0.00 | 0.00 | 0.00 | 85 | 1010.1 |
| 20260505033055 | 54 | 230 | 1.0 | 4.0 | 0.00 | 0.00 | 0.00 | 85 | 1010.2 |
| 20260505032234 | 55 | 238 | 1.0 | 2.0 | 0.00 | 0.00 | 0.00 | 85 | 1010.2 |
| 20260505031608 | 54 | 244 | 0.0 | 2.0 | 0.00 | 0.00 | 0.00 | 85 | 1010.3 |
| 20260505030227 | 55 | 231 | 1.0 | 2.0 | 0.00 | 0.00 | 0.00 | 84 | 1010.5 |
| 20260505030042 | 55 | 231 | 0.0 | 2.0 | 0.00 | 0.00 | 0.00 | 84 | 1010.5 |
| 20260505025219 | 55 | 231 | 0.0 | 1.0 | 0.00 | 0.00 | 0.00 | 84 | 1010.6 |
| 20260505024525 | 55 | 231 | 0.0 | 1.0 | 0.00 | 0.00 | 0.00 | 83 | 1010.6 |
| 20260505024220 | 55 | 231 | 0.0 | 1.0 | 0.00 | 0.00 | 0.00 | 83 | 1010.7 |
| 20260505023211 | 55 | 231 | 0.0 | 1.0 | 0.00 | 0.00 | 0.00 | 83 | 1010.8 |
| 20260505023054 | 55 | 231 | 0.0 | 1.0 | 0.00 | 0.00 | 0.00 | 83 | 1010.8 |
| 20260505022208 | 56 | 231 | 1.0 | 2.0 | 0.00 | 0.00 | 0.00 | 83 | 1011.0 |
| 20260505021511 | 55 | 241 | 0.0 | 2.0 | 0.00 | 0.00 | 0.00 | 83 | 1011.1 |
| 20260505021225 | 56 | 223 | 0.0 | 1.0 | 0.00 | 0.00 | 0.00 | 83 | 1011.1 |
| 20260505020219 | 56 | 223 | 0.0 | 1.0 | 0.00 | 0.00 | 0.00 | 83 | 1011.3 |
| 20260505020008 | 55 | 223 | 0.0 | 1.0 | 0.00 | 0.00 | 0.00 | 83 | 1011.3 |
| 20260505015224 | 56 | 223 | 0.0 | 1.0 | 0.00 | 0.00 | 0.00 | 82 | 1011.2 |
| 20260505014558 | 55 | 223 | 0.0 | 1.0 | 0.00 | 0.00 | 0.00 | 82 | 1011.3 |
| 20260505014223 | 56 | 223 | 1.0 | 2.0 | 0.00 | 0.00 | 0.00 | 82 | 1011.3 |
| 20260505013221 | 56 | 223 | 1.0 | 2.0 | 0.00 | 0.00 | 0.00 | 82 | 1011.4 |
| 20260505013016 | 56 | 215 | 1.0 | 2.0 | 0.00 | 0.00 | 0.00 | 82 | 1011.4 |
| 20260505012219 | 56 | 287 | 0.0 | 2.0 | 0.00 | 0.00 | 0.00 | 81 | 1011.5 |
| 20260505011603 | 56 | 313 | 0.0 | 2.0 | 0.00 | 0.00 | 0.00 | 81 | 1011.6 |
| 20260505010214 | 56 | 10 | 0.0 | 0.0 | 0.00 | 0.00 | 0.00 | 81 | 1011.8 |
| 20260505010023 | 56 | 10 | 0.0 | 0.0 | 0.00 | 0.00 | 0.00 | 81 | 1011.8 |
| 20260505005222 | 56 | 10 | 0.0 | 1.0 | 0.00 | 0.00 | 0.00 | 82 | 1011.9 |
| 20260505004510 | 56 | 11 | 0.0 | 1.0 | 0.00 | 0.00 | 0.00 | 82 | 1012.1 |
| 20260505004217 | 56 | 11 | 0.0 | 1.0 | 0.00 | 0.00 | 0.00 | 82 | 1012.1 |
| 20260505003221 | 56 | 11 | 0.0 | 1.0 | 0.00 | 0.00 | 0.00 | 81 | 1012.1 |
| 20260505003110 | 56 | 11 | 0.0 | 1.0 | 0.00 | 0.00 | 0.00 | 81 | 1012.2 |
| 20260505002215 | 57 | 11 | 0.0 | 1.0 | 0.00 | 0.00 | 0.00 | 81 | 1012.2 |